Regional Weather Roundup
Issued by NWS

Home | Current Version | Previous Version | Text Only | Print | Product List | Glossary Off
Versions: 1 2 3 4 5 6 7 8 9 10 11 12 13 14 15 16 17 18 19 20 21 22 23 24 25 26 27 28 29 30 31 32 33 34 35 36 37 38 39 40 41 42 43 44 45 46 47 48 49 50

228
ASUS43 KMPX 112101
RWRMN
WEATHER ROUNDUP FOR MINNESOTA
NATIONAL WEATHER SERVICE TWIN CITIES/CHANHASSEN MN
300 PM CST THU FEB 11 2016


NOTE: "FAIR" INDICATES FEW OR NO CLOUDS BELOW 12,000 FEET WITH NO
SIGNIFICANT WEATHER AND/OR OBSTRUCTIONS TO VISIBILITY. N/A MEANS
CURRENT SKY AND/OR WEATHER CONDITIONS ARE NOT AVAILABLE.

MNZ060>063-068>070-112200-
   Twin Cities Metro

CITY           SKY/WX    TMP DP  RH WIND       PRES   REMARKS
TWIN CITIES    CLOUDY    17  -3  41 SW7       30.23F WCI   8
ST PAUL        CLOUDY    17  -1  45 CALM      30.25F
CRYSTAL        CLOUDY    17  -1  45 S5        30.22F WCI  10
BLAINE         CLOUDY    18   0  45 SW5       30.22F WCI  11
LAKEVILLE      CLOUDY    16   1  53 S6        30.22F WCI   7
EDEN PRAIRIE   CLOUDY    16   1  51 S7        30.23F WCI   6
SOUTH ST PAUL  CLOUDY    17   0  48 S6        30.24S WCI   8
LAKE ELMO      CLOUDY    18   3  53 S8        30.24S WCI   7
$$
MNZ001>005-007-008-013>017-022>024-027-028-112200-
   Northwest Minnesota

CITY           SKY/WX    TMP DP  RH WIND       PRES   REMARKS
BEMIDJI        CLOUDY    11  -3  52 W8        30.15S WCI   0
HALLOCK        SUNNY     12   7  79 NW8       30.22S WCI   1
ROSEAU         CLOUDY    12   3  67 W9        30.18S WCI   0
WARROAD        CLOUDY    10   1  67 SW8       30.16S WCI  -1
THIEF RVR FALL CLOUDY    10   1  67 W9        30.20S WCI  -2
CROOKSTON      CLOUDY    12   5  73 W6        30.23S WCI   3
FOSSTON        CLOUDY    10  -2  56 SW6       30.19R WCI   1
DETROIT LAKES  MIX PCPN  16   3  57 W5        30.17S WCI   9
MOORHEAD       MIX PCPN  12   3  67 W3        30.22S
PARK RAPIDS    CLOUDY    14  -2  49 W7        30.15F WCI   4
MAHNOMEN       CLOUDY    11   2  68 SW3       30.18F
$$
MNZ006-009>011-018-025>026-112200-
   North Central Minnesota

CITY           SKY/WX    TMP DP  RH WIND       PRES   REMARKS
BAUDETTE       CLOUDY    12  -1  56 NW13      30.13F WCI  -3
FLAG ISLAND    CLOUDY     9   0  66 CALM      30.14F
INTL FALLS     PTSUNNY   12  -6  44 W9        30.12F WCI   0
WASKISH        CLOUDY    10   1  67 SW7       30.16S WCI   0
LONGVILLE      CLOUDY    12  -2  52 SW6       30.15F WCI   3
GRAND RAPIDS   CLOUDY    10  -6  48 W8        30.14F WCI  -1
CRANE LAKE     PTSUNNY   10  -8  44 W7        30.14F WCI   0
ORR            CLOUDY    12  -8  40 W3        30.09S
COOK           CLOUDY    10  -6  48 W12       30.11F WCI  -4
WALKER         CLOUDY    13  -4  46 W8        30.15F WCI   1
$$
MNZ012-019>021-037-112200-
   Northeast Minnesota

CITY           SKY/WX    TMP DP  RH WIND       PRES   REMARKS
DULUTH         PTSUNNY   12  -5  46 W12       30.12F WCI  -2
ELY            MOSUNNY    9  -4  56 W9        30.09S WCI  -5
HIBBING        CLOUDY    10  -8  44 W10       30.12F WCI  -4
EVELETH        MOSUNNY   12  -6  44 W12       30.13S WCI  -2
DULUTH HARBOR  CLOUDY    16  -2  45 SW13      30.20F WCI   2
TWO HARBORS    CLOUDY    16  -2  45 W9        30.11F WCI   4
SILVER BAY     PTSUNNY   18  -6  35 SW6       30.09F WCI   9
GRAND MARAIS     N/A     18   5  57 W12G22    30.12F WCI   5
G MARAIS ARPRT SUNNY     10  -2  56 W8        30.02S WCI  -1
$$
MNZ029>031-032-039>041-046>048-054>057-064-112200-
   West Central Minnesota

CITY           SKY/WX    TMP DP  RH WIND       PRES   REMARKS
FERGUS FALLS   CLOUDY    14   7  73 SW6       30.21F WCI   5
WHEATON        CLOUDY    16  10  79 S6        30.21S WCI   7
MORRIS         CLOUDY    14   7  73 S7        30.18F WCI   4
ALEXANDRIA     CLOUDY    13   6  74 SW8       30.17F WCI   2
ELBOW LAKE     CLOUDY    13   7  75 S10       30.18F HAZE    WCI   0
WADENA         MIX PCPN  14   3  62 W7        30.16S WCI   4
GLENWOOD       CLOUDY    14   7  73 S9        30.17F WCI   2
APPLETON       CLOUDY    16   9  73 S7        30.20F WCI   6
BENSON         CLOUDY    16   5  62 CALM      30.19F
ORTONVILLE     LGT SNOW  16   9  73 SE6       30.18F WCI   7
MADISON        LGT SNOW  19  12  73 SE5       30.19F WCI  13
WILLMAR        CLOUDY    16   9  73 S3        30.21F
$$
MNZ033>034-036-042>043-049>051-058-059-112200-
   Central Minnesota

CITY           SKY/WX    TMP DP  RH WIND       PRES   REMARKS
ST CLOUD       CLOUDY    14   1  56 SW8       30.21F WCI   3
SAUK CENTRE    FLURRIES  14   6  72 SW9       30.19S WCI   2
PAYNESVILLE    CLOUDY    15   7  69 SW7       30.20F WCI   6
AITKIN         CLOUDY    16  -6  38 SW5       30.16F WCI   9
PINE RIVER     CLOUDY    12   1  62 SW6       30.19F WCI   3
BRAINERD       CLOUDY    12  -1  56 SW8       30.18F WCI   0
STAPLES        CLOUDY    12   1  62 W5        30.17F WCI   4
LONG PRAIRIE   LGT SNOW  14   9  79 S8        30.18F WCI   3
LITTLE FALLS   CLOUDY    14   5  67 SW6       30.20F WCI   5
LITCHFIELD     MIX PCPN  16   5  62 SW3       30.21F
BUFFALO        CLOUDY    16   3  57 SW7       30.23F WCI   6
MAPLE LAKE     CLOUDY    17   6  62 SW5       30.22F WCI  10
$$
MNZ037-044-045-052-053-112200-
   East Central Minnesota

CITY           SKY/WX    TMP DP  RH WIND       PRES   REMARKS
PRINCETON      CLOUDY    16   1  53 SW6       30.21F WCI   7
MORA           CLOUDY    14   0  52 W7        30.22F WCI   4
CAMBRIDGE      CLOUDY    16   1  53 CALM      30.20F
RUSH CITY      CLOUDY    14  -2  47 SW6       30.22F WCI   5
MOOSE LAKE     CLOUDY    18  -6  35 W8        30.16S WCI   7
HINCKLEY       CLOUDY    14   0  52 W6        30.20F WCI   5
CLOQUET        CLOUDY    14  -8  37 W10       30.14S WCI   1
MCGREGOR       CLOUDY    14   0  52 W5        30.17F WCI   6
$$
MNZ071>073-080-081-089-090-097-098-112200-
   Southwest Minnesota

CITY           SKY/WX    TMP DP  RH WIND       PRES   REMARKS
MONTEVIDEO     CLOUDY    18  10  73 SW3       30.21F
GRANITE FALLS  CLOUDY    19  11  70 S7        30.22F WCI  10
CANBY          LGT SNOW  21  16  79 S5        30.19F WCI  15
MARSHALL       LGT SNOW  18  12  77 S8        30.19F VSB 1   WCI   8
REDWOOD FALLS  CLOUDY    15   5  64 S7        30.22F WCI   5
OLIVIA         CLOUDY    18   9  68 S7        30.21F WCI   8
PIPESTONE      CLOUDY    18   7  62 S10       30.13F WCI   6
WINDOM         LGT SNOW  16   9  73 S7        30.19F WCI   6
WORTHINGTON    CLOUDY    14   9  79 S9        30.17F WCI   2
JACKSON        LGT SNOW  18   9  68 SW10      30.20F WCI   6
TRACY          LGT SNOW  17  13  82 S8        30.18F WCI   7
SLAYTON        LGT SNOW  16  13  88 S9        30.16S WCI   5
$$
MNZ065>067-074>077-082>085-091>093-112200-
   South Central Minnesota

CITY           SKY/WX    TMP DP  RH WIND       PRES   REMARKS
MANKATO        CLOUDY    16   1  53 S8        30.23F WCI   5
NEW ULM        CLOUDY    14   3  62 S9        30.22F WCI   2
ST JAMES       CLOUDY    16   7  67 S8        30.24F WCI   5
FAIRMONT       CLOUDY    12   1  62 SW9       30.22S WCI   0
GLENCOE        CLOUDY    17   7  65 SW8       30.23S WCI   6
FARIBAULT      CLOUDY    18   3  53 S9        30.23F WCI   6
OWATONNA       PTSUNNY   16   3  57 SW9       30.22F WCI   4
WASECA         MOSUNNY   18   7  62 S12       30.25S WCI   5
ALBERT LEA     SUNNY     14   1  57 SW6       30.23S WCI   5
$$
MNZ078>079-086>088-094>096-112200-
   Southeast Minnesota

CITY           SKY/WX    TMP DP  RH WIND       PRES   REMARKS
ROCHESTER      CLOUDY    11   0  61 S12       30.22F WCI  -3
RED WING       CLOUDY    18   0  45 W7        30.25F WCI   8
STANTON        CLOUDY    17   2  51 S7        30.22F WCI   8
DODGE CENTER   CLOUDY    16   1  53 SW10      30.21F WCI   3
WINONA         CLOUDY    19   1  45 W6        30.28S WCI  11
AUSTIN         SUNNY     12   1  62 S8        30.23F WCI   1
PRESTON        CLOUDY    14  -1  50 S8        30.23F WCI   3
$$
ABBREVIATIONS USED IN REMARKS
   TC - TEMPERATURES IN CELSIUS
  WCI - WIND CHILL INDEX
   HX - HEAT INDEX
  VSB - VISIBILITY
$$




USA.gov is the U.S. government's official web portal to all federal, state and local government web resources and services.